Weather History for Shreveport Downtown, LA

Change the Weather History Date:

Saturday, March 8, 2014

  Actual Average (KSHV) Record (KSHV)
Temperature  
Mean Temperature 47 °F 56 °F  
Max Temperature 55 °F 67 °F 87 °F (1911)
Min Temperature 39 °F 45 °F 25 °F (1957)
Degree Days  
Heating Degree Days 18 10  
Month to date heating degree days 84  
Since 1 July heating degree days 1966  
Cooling Degree Days 0 1  
Month to date cooling degree days 6  
Year to date cooling degree days 16  
Moisture  
Dew Point 50 °F    
Average Humidity 93    
Maximum Humidity 100    
Minimum Humidity 80    
Precipitation  
Precipitation 0.08 in 0.13 in 2.15 in (1905)
Month to date precipitation 1.14  
Year to date precipitation 10.09  
Snow  
Snow 0.00 in - - ()
Month to date snowfall  
Since 1 July snowfall  
Snow Depth -    
Sea Level Pressure  
Sea Level Pressure 30.12 in    
Wind  
Wind Speed 3 mph (SE)    
Max Wind Speed 8 mph    
Max Gust Speed -    
Visibility 4 miles    
Events Rain    
T = Trace of Precipitation, MM = Missing Value Source: NWS Daily Summary

Daily Weather History Graph

Daily Weather History Graph

Search for Another Location

Airport:

Trip Planner

Search our weather history database for the weather conditions in past years. The results will help you decide how hot, cold, wet, or windy it might be!

Date:

Astronomy

Mar. 08, 2014 Rise Set
Actual Time 6:34 AM CST 6:17 PM CST
Civil Twilight 6:09 AM CST 6:42 PM CST
Nautical Twilight 5:41 AM CST 7:10 PM CST
Astronomical Twilight 5:12 AM CST 7:39 PM CST
Moon 11:36 AM CST (3/8) 12:56 AM CST (3/8)
Length of Visible Light 12h 32m
Length of Day
11h 43m
First Quarter, 52% of the Moon is Illuminated
Mar 8
First Quarter
Mar 16
Full
Mar 23
Last Quarter
Mar 30
New
Apr 7
First Quarter

Hourly Weather History & Observations

Time (CST) Temp. Windchill Dew Point Humidity Pressure Visibility Wind Dir Wind Speed Gust Speed Precip Events Conditions
12:53 AM 46.9 °F - 42.1 °F 83% 29.99 in 10.0 mi SE 5.8 mph - N/A   Clear
1:53 AM 46.9 °F - 43.0 °F 86% 30.00 in 10.0 mi SSE 3.5 mph - N/A   Clear
2:53 AM 46.9 °F - 43.0 °F 86% 30.00 in 10.0 mi SE 3.5 mph - N/A   Clear
3:53 AM 44.1 °F - 42.1 °F 93% 30.01 in 10.0 mi Calm Calm - N/A   Clear
4:36 AM 39.2 °F - 39.2 °F 100% 30.02 in 1.8 mi Calm Calm - N/A   Clear
4:50 AM 42.8 °F - 41.0 °F 93% 30.03 in 3.0 mi Calm Calm - N/A   Clear
4:53 AM 41.0 °F - 41.0 °F 100% 30.03 in 6.0 mi Calm Calm - N/A   Clear
5:53 AM 42.1 °F 40.2 °F 41.0 °F 96% 30.06 in 6.0 mi SE 3.5 mph - N/A   Clear
6:53 AM 44.1 °F 40.8 °F 42.1 °F 93% 30.08 in 7.0 mi SE 5.8 mph - N/A   Clear
7:53 AM 48.0 °F - 45.0 °F 89% 30.09 in 7.0 mi SSE 8.1 mph - N/A   Clear
8:53 AM 52.0 °F - 46.9 °F 83% 30.12 in 9.0 mi SSE 4.6 mph - N/A   Mostly Cloudy
9:53 AM 53.1 °F - 48.0 °F 83% 30.13 in 8.0 mi SE 8.1 mph - N/A   Overcast
10:30 AM 51.8 °F - 48.2 °F 88% 30.14 in 6.0 mi SSE 6.9 mph - N/A   Overcast
10:53 AM 53.1 °F - 48.0 °F 83% 30.14 in 6.0 mi SE 8.1 mph - N/A   Haze
11:53 AM 54.0 °F - 48.9 °F 83% 30.14 in 9.0 mi SE 8.1 mph - N/A   Overcast
12:53 PM 55.0 °F - 48.9 °F 80% 30.12 in 10.0 mi SE 5.8 mph - N/A   Overcast
1:23 PM 55.4 °F - 50.0 °F 82% 30.10 in 10.0 mi SSE 8.1 mph - N/A   Overcast
1:53 PM 55.9 °F - 50.0 °F 80% 30.09 in 10.0 mi SE 6.9 mph - N/A   Overcast
2:53 PM 55.9 °F - 50.0 °F 80% 30.08 in 10.0 mi SE 6.9 mph - N/A   Overcast
3:53 PM 55.0 °F - 51.1 °F 86% 30.09 in 4.0 mi ESE 3.5 mph - N/A   Overcast
4:10 PM 55.4 °F - 51.8 °F 88% 30.09 in 3.0 mi SE 4.6 mph - N/A   Overcast
4:20 PM 55.4 °F - 53.6 °F 94% 30.09 in 2.0 mi SE 3.5 mph - N/A   Overcast
4:36 PM 55.4 °F - 53.6 °F 94% 30.09 in 3.0 mi Calm Calm - N/A   Overcast
4:53 PM 55.0 °F - 53.1 °F 93% 30.10 in 3.0 mi Calm Calm - N/A   Overcast
5:18 PM 55.4 °F - 53.6 °F 94% 30.11 in 3.0 mi Calm Calm - 0.00 in Rain Light Rain
5:36 PM 55.4 °F - 53.6 °F 94% 30.12 in 2.0 mi NNW 3.5 mph - 0.00 in Rain Light Rain
5:49 PM 53.6 °F - 53.6 °F 100% 30.13 in 1.8 mi NNW 4.6 mph - 0.00 in   Overcast
5:53 PM 54.0 °F - 53.1 °F 97% 30.13 in 1.8 mi NNW 4.6 mph - 0.00 in   Overcast
6:05 PM 53.6 °F - 53.6 °F 100% 30.13 in 2.5 mi NNW 5.8 mph - N/A   Overcast
6:22 PM 53.6 °F - 53.6 °F 100% 30.13 in 3.0 mi North 3.5 mph - 0.01 in Rain Light Rain
6:39 PM 53.6 °F - 53.6 °F 100% 30.13 in 2.0 mi Calm Calm - 0.01 in   Overcast
6:53 PM 54.0 °F - 53.1 °F 97% 30.14 in 2.5 mi Calm Calm - 0.01 in   Overcast
7:17 PM 53.6 °F - 53.6 °F 100% 30.14 in 2.5 mi Calm Calm - N/A   Overcast
7:20 PM 53.6 °F - 53.6 °F 100% 30.14 in 2.5 mi Calm Calm - N/A   Overcast
7:53 PM 54.0 °F - 52.0 °F 93% 30.16 in 2.5 mi Calm Calm - N/A   Overcast
8:06 PM 53.6 °F - 53.6 °F 100% 30.16 in 1.8 mi Calm Calm - N/A   Overcast
8:43 PM 53.6 °F - 53.6 °F 100% 30.17 in 1.8 mi Calm Calm - 0.01 in Rain Light Rain
8:53 PM 54.0 °F - 52.0 °F 93% 30.17 in 1.5 mi Calm Calm - 0.01 in Rain Light Rain
9:04 PM 53.6 °F - 51.8 °F 94% 30.18 in 1.5 mi Calm Calm - 0.00 in Rain Light Rain
9:21 PM 53.6 °F - 53.6 °F 100% 30.19 in 1.5 mi Calm Calm - 0.01 in Rain Rain
9:53 PM 53.1 °F - 52.0 °F 96% 30.19 in 1.8 mi Calm Calm - 0.04 in Rain Light Rain
10:03 PM 53.6 °F - 51.8 °F 94% 30.20 in 2.0 mi NNW 3.5 mph - 0.00 in Rain Light Rain
10:53 PM 53.1 °F - 52.0 °F 96% 30.20 in 2.5 mi NNW 3.5 mph - 0.02 in Rain Light Rain
11:04 PM 53.6 °F - 51.8 °F 94% 30.21 in 3.0 mi NW 4.6 mph - 0.00 in Rain Light Rain
11:22 PM 53.6 °F - 51.8 °F 94% 30.21 in 2.5 mi Calm Calm - 0.00 in   Overcast
11:32 PM 53.6 °F - 53.6 °F 100% 30.21 in 3.0 mi Calm Calm - 0.00 in   Overcast
11:44 PM 53.6 °F - 53.6 °F 100% 30.20 in 3.0 mi Calm Calm - 0.00 in Rain Light Rain
11:53 PM 53.1 °F - 52.0 °F 96% 30.19 in 2.5 mi Calm Calm - 0.00 in Rain Light Rain